QPF
0.00 0.00 0.00 0.00 0.00 0.00 0.00 0.00 0.00 0.01 0.01 0.01 0.00 0.00 0.01 0.01 0.02 0.02 0.02 0.02 0.03 0.04 0.04 0.05 0.06 0.07 0.09 0.09 0.09 0.10 0.11 0.13 0.14 0.13 0.11 0.09 0.08 0.09 0.08 0.07 0.07 0.08 0.07 0.06
0.00 0.00 0.00 0.00 0.00 0.00 0.00 0.00 0.00 0.01 0.01 0.00 0.00 0.00 0.01 0.01 0.02 0.02 0.02 0.02 0.03 0.03 0.02 0.03 0.03 0.04 0.06 0.08 0.09 0.09 0.10 0.13 0.15 0.15 0.15 0.13 0.11 0.09 0.09 0.09 0.08 0.07 0.07 0.06
0.00 0.00 0.00 0.00 0.00 0.00 0.00 0.00 0.00 0.01 0.01 0.00 0.00 0.00 0.01 0.01 0.02 0.01 0.01 0.02 0.02 0.02 0.02 0.02 0.04 0.06 0.08 0.08 0.07 0.08 0.10 0.12 0.13 0.16 0.18 0.14 0.11 0.09 0.08 0.07 0.08 0.09 0.09 0.08
0.00 0.00 0.00 0.00 0.00 0.00 0.00 0.00 0.00 0.01 0.01 0.01 0.00 0.00 0.01 0.01 0.01 0.01 0.01 0.01 0.01 0.02 0.02 0.02 0.03 0.06 0.07 0.05 0.06 0.08 0.10 0.14 0.13 0.14 0.16 0.15 0.12 0.10 0.09 0.09 0.08 0.08 0.08 0.06
0.00 0.00 0.00 0.00 0.00 0.00 0.00 0.00 0.00 0.01 0.01 0.01 0.01 0.00 0.00 0.00 0.01 0.01 0.01 0.01 0.01 0.01 0.01 0.02 0.03 0.05 0.06 0.07 0.06 0.08 0.13 0.17 0.16 0.13 0.13 0.16 0.13 0.12 0.11 0.10 0.08 0.07 0.06 0.06
0.00 0.00 0.00 0.00 0.00 0.00 0.00 0.00 0.00 0.01 0.01 0.01 0.00 0.00 0.00 0.00 0.00 0.01 0.00 0.01 0.01 0.01 0.02 0.02 0.02 0.03 0.05 0.06 0.09 0.11 0.15 0.16 0.15 0.12 0.10 0.13 0.12 0.12 0.10 0.09 0.09 0.08 0.07 0.05
0.00 0.00 0.00 0.00 0.01 0.01 0.01 0.01 0.01 0.01 0.01 0.00 0.00 0.00 0.00 0.00 0.00 0.01 0.00 0.01 0.01 0.02 0.02 0.02 0.03 0.02 0.03 0.05 0.09 0.12 0.13 0.12 0.11 0.11 0.11 0.11 0.10 0.10 0.08 0.07 0.06 0.05 0.04 0.03
0.00 0.00 0.00 0.00 0.00 0.01 0.01 0.01 0.01 0.01 0.02 0.01 0.01 0.01 0.01 0.01 0.02 0.02 0.01 0.01 0.01 0.02 0.02 0.02 0.02 0.02 0.03 0.04 0.06 0.08 0.10 0.09 0.10 0.11 0.10 0.08 0.08 0.08 0.07 0.06 0.05 0.05 0.04 0.04
0.00 0.00 0.00 0.00 0.00 0.00 0.01 0.02 0.01 0.01 0.01 0.01 0.02 0.02 0.02 0.02 0.02 0.02 0.01 0.01 0.01 0.02 0.02 0.02 0.03 0.04 0.04 0.04 0.04 0.05 0.06 0.06 0.07 0.07 0.07 0.07 0.06 0.05 0.06 0.06 0.05 0.05 0.05 0.04
0.00 0.00 0.00 0.00 0.00 0.00 0.01 0.02 0.01 0.01 0.01 0.01 0.01 0.02 0.02 0.02 0.02 0.02 0.02 0.01 0.01 0.02 0.02 0.03 0.05 0.05 0.04 0.04 0.04 0.04 0.04 0.04 0.04 0.04 0.04 0.04 0.05 0.06 0.06 0.06 0.05 0.05 0.04 0.04
0.01 0.01 0.01 0.00 0.01 0.01 0.02 0.02 0.01 0.01 0.01 0.01 0.01 0.02 0.04 0.04 0.02 0.02 0.05 0.04 0.03 0.04 0.04 0.04 0.04 0.04 0.04 0.04 0.04 0.04 0.05 0.05 0.05 0.04 0.04 0.03 0.04 0.04 0.04 0.03 0.04 0.04 0.04 0.04
0.01 0.01 0.01 0.00 0.00 0.01 0.02 0.01 0.01 0.01 0.01 0.01 0.01 0.01 0.02 0.03 0.02 0.02 0.03 0.04 0.04 0.04 0.05 0.05 0.04 0.04 0.03 0.03 0.03 0.03 0.03 0.04 0.05 0.05 0.05 0.04 0.03 0.02 0.02 0.03 0.03 0.03 0.05 0.05
0.01 0.01 0.01 0.01 0.01 0.01 0.01 0.01 0.01 0.01 0.01 0.00 0.01 0.01 0.01 0.01 0.02 0.02 0.04 0.04 0.04 0.04 0.05 0.05 0.04 0.03 0.02 0.02 0.02 0.02 0.03 0.03 0.03 0.03 0.03 0.02 0.02 0.02 0.02 0.01 0.02 0.03 0.04 0.05
0.01 0.01 0.01 0.01 0.01 0.01 0.01 0.01 0.01 0.01 0.01 0.01 0.01 0.01 0.01 0.02 0.03 0.03 0.02 0.02 0.02 0.03 0.03 0.04 0.03 0.02 0.02 0.03 0.04 0.03 0.03 0.02 0.01 0.01 0.01 0.01 0.02 0.02 0.02 0.02 0.03 0.03 0.02 0.04
0.01 0.01 0.01 0.01 0.01 0.01 0.01 0.01 0.01 0.01 0.01 0.01 0.01 0.01 0.01 0.01 0.02 0.03 0.02 0.01 0.01 0.02 0.03 0.03 0.02 0.02 0.02 0.01 0.01 0.02 0.02 0.01 0.01 0.01 0.01 0.01 0.01 0.02 0.02 0.03 0.03 0.03 0.03 0.03
0.01 0.01 0.01 0.01 0.01 0.01 0.01 0.01 0.01 0.01 0.01 0.01 0.01 0.01 0.01 0.01 0.01 0.01 0.01 0.01 0.01 0.02 0.02 0.02 0.01 0.01 0.01 0.01 0.01 0.01 0.01 0.01 0.01 0.02 0.02 0.02 0.02 0.02 0.02 0.02 0.02 0.02 0.03 0.03
0.01 0.01 0.01 0.01 0.01 0.01 0.01 0.01 0.01 0.02 0.02 0.02 0.01 0.01 0.00 0.00 0.00 0.01 0.01 0.02 0.03 0.03 0.02 0.02 0.01 0.01 0.00 0.01 0.01 0.01 0.02 0.02 0.02 0.02 0.02 0.03 0.03 0.03 0.02 0.02 0.02 0.02 0.02 0.02
0.01 0.01 0.02 0.02 0.01 0.02 0.01 0.01 0.01 0.01 0.01 0.02 0.02 0.01 0.00 0.00 0.01 0.01 0.01 0.03 0.05 0.04 0.03 0.02 0.01 0.01 0.01 0.01 0.01 0.01 0.02 0.03 0.02 0.01 0.01 0.02 0.02 0.03 0.03 0.02 0.03 0.02 0.01 0.01
0.01 0.02 0.03 0.03 0.03 0.01 0.01 0.02 0.01 0.01 0.01 0.02 0.01 0.01 0.00 0.00 0.01 0.01 0.01 0.03 0.03 0.03 0.02 0.02 0.01 0.01 0.01 0.01 0.01 0.01 0.02 0.02 0.02 0.01 0.01 0.02 0.03 0.04 0.04 0.04 0.03 0.03 0.02 0.02
0.02 0.03 0.04 0.04 0.04 0.02 0.01 0.02 0.02 0.02 0.02 0.01 0.01 0.01 0.01 0.01 0.02 0.02 0.02 0.02 0.02 0.02 0.01 0.01 0.01 0.01 0.01 0.01 0.01 0.02 0.02 0.03 0.02 0.01 0.02 0.03 0.04 0.04 0.04 0.04 0.04 0.03 0.03 0.02
0.03 0.03 0.03 0.04 0.04 0.02 0.02 0.03 0.03 0.03 0.02 0.01 0.01 0.01 0.01 0.01 0.01 0.02 0.02 0.02 0.02 0.02 0.01 0.01 0.01 0.01 0.02 0.03 0.02 0.02 0.02 0.02 0.01 0.01 0.02 0.03 0.04 0.03 0.04 0.04 0.03 0.04 0.03 0.02
0.06 0.07 0.04 0.04 0.04 0.02 0.02 0.04 0.04 0.04 0.03 0.03 0.01 0.00 0.00 0.01 0.01 0.01 0.01 0.01 0.01 0.01 0.01 0.01 0.01 0.01 0.02 0.03 0.02 0.02 0.01 0.01 0.01 0.02 0.02 0.02 0.03 0.03 0.03 0.03 0.03 0.02 0.02 0.01
0.06 0.08 0.06 0.05 0.04 0.03 0.03 0.05 0.05 0.05 0.05 0.03 0.01 0.01 0.01 0.01 0.01 0.01 0.01 0.01 0.01 0.01 0.02 0.01 0.01 0.01 0.01 0.02 0.02 0.01 0.01 0.01 0.01 0.02 0.02 0.02 0.03 0.02 0.02 0.02 0.02 0.02 0.01 0.02
0.04 0.05 0.06 0.05 0.06 0.06 0.07 0.07 0.06 0.07 0.06 0.04 0.02 0.01 0.01 0.02 0.02 0.02 0.01 0.01 0.01 0.01 0.02 0.01 0.02 0.01 0.02 0.02 0.01 0.01 0.01 0.01 0.01 0.01 0.02 0.02 0.03 0.02 0.01 0.01 0.02 0.02 0.02 0.01
0.03 0.05 0.06 0.07 0.09 0.08 0.08 0.07 0.06 0.05 0.04 0.04 0.03 0.02 0.01 0.01 0.01 0.02 0.02 0.01 0.01 0.01 0.02 0.02 0.02 0.02 0.03 0.02 0.01 0.01 0.01 0.01 0.01 0.01 0.01 0.02 0.02 0.02 0.02 0.02 0.02 0.02 0.02 0.02
0.03 0.05 0.06 0.05 0.05 0.05 0.04 0.04 0.04 0.04 0.02 0.02 0.02 0.02 0.01 0.01 0.02 0.02 0.02 0.02 0.02 0.01 0.02 0.02 0.03 0.03 0.02 0.01 0.01 0.01 0.01 0.00 0.00 0.01 0.01 0.01 0.02 0.03 0.02 0.01 0.02 0.01 0.01 0.01
MSLP
1011.64 1012.16 1012.44 1012.51 1012.43 1012.27 1012.10 1011.98 1011.92 1011.90 1011.89 1011.83 1011.69 1011.45 1011.10 1010.70 1010.28 1009.89 1009.60 1009.41 1009.35 1009.39 1009.52 1009.70 1009.89 1010.10 1010.32 1010.55 1010.80 1011.11 1011.45 1011.84 1012.23 1012.62 1012.97 1013.25 1013.47 1013.61 1013.71 1013.78 1013.86 1013.97 1014.14 1014.36
1011.65 1012.01 1012.13 1012.08 1011.93 1011.78 1011.70 1011.72 1011.85 1012.02 1012.17 1012.24 1012.17 1011.93 1011.55 1011.07 1010.56 1010.11 1009.78 1009.59 1009.55 1009.63 1009.79 1009.99 1010.18 1010.33 1010.46 1010.58 1010.73 1010.93 1011.20 1011.55 1011.96 1012.40 1012.82 1013.19 1013.49 1013.71 1013.85 1013.96 1014.06 1014.18 1014.34 1014.56
1011.43 1011.58 1011.53 1011.35 1011.17 1011.07 1011.11 1011.33 1011.68 1012.08 1012.42 1012.62 1012.60 1012.36 1011.91 1011.33 1010.73 1010.20 1009.81 1009.62 1009.62 1009.76 1010.00 1010.25 1010.47 1010.62 1010.71 1010.75 1010.80 1010.91 1011.11 1011.42 1011.82 1012.29 1012.77 1013.22 1013.60 1013.90 1014.11 1014.26 1014.38 1014.50 1014.66 1014.85
1011.07 1010.97 1010.73 1010.45 1010.25 1010.23 1010.44 1010.88 1011.47 1012.10 1012.64 1012.95 1012.99 1012.71 1012.18 1011.49 1010.77 1010.14 1009.71 1009.52 1009.56 1009.80 1010.14 1010.50 1010.79 1010.99 1011.08 1011.09 1011.08 1011.11 1011.24 1011.50 1011.88 1012.36 1012.88 1013.39 1013.84 1014.21 1014.48 1014.66 1014.80 1014.91 1015.04 1015.20
1010.72 1010.37 1009.94 1009.56 1009.36 1009.44 1009.82 1010.49 1011.32 1012.17 1012.86 1013.28 1013.33 1013.01 1012.37 1011.55 1010.70 1009.98 1009.50 1009.31 1009.42 1009.76 1010.24 1010.73 1011.15 1011.44 1011.58 1011.60 1011.56 1011.54 1011.61 1011.82 1012.16 1012.62 1013.16 1013.70 1014.20 1014.61 1014.91 1015.12 1015.26 1015.36 1015.45 1015.57
1010.56 1009.98 1009.38 1008.91 1008.72 1008.89 1009.43 1010.29 1011.32 1012.33 1013.14 1013.61 1013.64 1013.25 1012.50 1011.54 1010.57 1009.76 1009.23 1009.06 1009.24 1009.70 1010.33 1010.98 1011.55 1011.96 1012.18 1012.24 1012.21 1012.17 1012.19 1012.34 1012.64 1013.07 1013.59 1014.13 1014.63 1015.06 1015.38 1015.59 1015.71 1015.79 1015.84 1015.90
1010.76 1009.97 1009.23 1008.70 1008.51 1008.75 1009.40 1010.38 1011.52 1012.63 1013.49 1013.94 1013.92 1013.43 1012.56 1011.49 1010.41 1009.52 1008.97 1008.83 1009.08 1009.66 1010.43 1011.24 1011.96 1012.51 1012.83 1012.96 1012.96 1012.91 1012.91 1013.01 1013.26 1013.64 1014.11 1014.62 1015.10 1015.51 1015.81 1016.00 1016.10 1016.14 1016.15 1016.16
1011.38 1010.44 1009.60 1009.01 1008.82 1009.07 1009.76 1010.78 1011.95 1013.04 1013.86 1014.25 1014.14 1013.54 1012.56 1011.38 1010.23 1009.30 1008.75 1008.64 1008.97 1009.65 1010.55 1011.50 1012.36 1013.02 1013.45 1013.66 1013.70 1013.67 1013.65 1013.72 1013.92 1014.24 1014.66 1015.11 1015.55 1015.91 1016.17 1016.32 1016.38 1016.38 1016.35 1016.32
1012.40 1011.37 1010.46 1009.84 1009.61 1009.83 1010.47 1011.43 1012.51 1013.50 1014.20 1014.46 1014.22 1013.51 1012.45 1011.22 1010.03 1009.10 1008.57 1008.51 1008.91 1009.67 1010.67 1011.72 1012.69 1013.45 1013.97 1014.25 1014.35 1014.34 1014.33 1014.39 1014.55 1014.82 1015.17 1015.56 1015.93 1016.23 1016.43 1016.53 1016.54 1016.50 1016.43 1016.37
1013.68 1012.62 1011.69 1011.02 1010.73 1010.87 1011.38 1012.18 1013.07 1013.86 1014.37 1014.47 1014.09 1013.29 1012.18 1010.94 1009.78 1008.90 1008.43 1008.44 1008.90 1009.72 1010.78 1011.89 1012.91 1013.74 1014.32 1014.66 1014.81 1014.85 1014.86 1014.92 1015.06 1015.30 1015.60 1015.92 1016.22 1016.45 1016.58 1016.62 1016.58 1016.50 1016.40 1016.33
1015.00 1013.97 1013.04 1012.34 1011.97 1011.95 1012.28 1012.83 1013.46 1013.99 1014.26 1014.17 1013.67 1012.80 1011.70 1010.51 1009.45 1008.68 1008.31 1008.40 1008.92 1009.79 1010.86 1011.98 1013.02 1013.87 1014.48 1014.87 1015.07 1015.15 1015.20 1015.29 1015.44 1015.65 1015.92 1016.19 1016.42 1016.58 1016.65 1016.63 1016.54 1016.42 1016.30 1016.22
1016.13 1015.16 1014.25 1013.52 1013.04 1012.85 1012.93 1013.20 1013.53 1013.76 1013.79 1013.51 1012.91 1012.03 1010.99 1009.93 1009.02 1008.40 1008.17 1008.37 1008.96 1009.85 1010.91 1012.02 1013.03 1013.86 1014.48 1014.89 1015.13 1015.27 1015.37 1015.49 1015.66 1015.88 1016.12 1016.35 1016.54 1016.64 1016.64 1016.57 1016.45 1016.30 1016.17 1016.09
1016.90 1016.01 1015.12 1014.35 1013.76 1013.39 1013.21 1013.19 1013.20 1013.15 1012.93 1012.50 1011.85 1011.01 1010.08 1009.20 1008.50 1008.08 1008.03 1008.34 1009.00 1009.91 1010.95 1012.00 1012.96 1013.76 1014.36 1014.78 1015.06 1015.24 1015.40 1015.57 1015.77 1016.01 1016.24 1016.45 1016.59 1016.64 1016.61 1016.50 1016.34 1016.18 1016.04 1015.96
1017.25 1016.41 1015.55 1014.74 1014.04 1013.48 1013.07 1012.76 1012.49 1012.19 1011.78 1011.24 1010.57 1009.82 1009.05 1008.39 1007.92 1007.73 1007.87 1008.32 1009.05 1009.96 1010.97 1011.97 1012.87 1013.62 1014.19 1014.61 1014.91 1015.14 1015.35 1015.57 1015.81 1016.06 1016.29 1016.48 1016.59 1016.62 1016.55 1016.41 1016.24 1016.07 1015.93 1015.86
1017.22 1016.42 1015.56 1014.70 1013.90 1013.19 1012.58 1012.03 1011.53 1011.02 1010.48 1009.88 1009.23 1008.59 1008.01 1007.58 1007.36 1007.40 1007.72 1008.30 1009.10 1010.03 1011.01 1011.95 1012.78 1013.48 1014.02 1014.44 1014.76 1015.02 1015.27 1015.53 1015.79 1016.06 1016.29 1016.46 1016.56 1016.56 1016.47 1016.32 1016.15 1015.98 1015.85 1015.78
1016.96 1016.16 1015.28 1014.38 1013.50 1012.66 1011.89 1011.17 1010.50 1009.85 1009.21 1008.59 1008.00 1007.48 1007.09 1006.87 1006.87 1007.11 1007.60 1008.30 1009.15 1010.10 1011.05 1011.94 1012.73 1013.38 1013.90 1014.31 1014.64 1014.93 1015.21 1015.49 1015.77 1016.03 1016.25 1016.41 1016.48 1016.47 1016.37 1016.22 1016.05 1015.89 1015.77 1015.71
1016.68 1015.84 1014.93 1013.98 1013.03 1012.10 1011.22 1010.38 1009.60 1008.86 1008.18 1007.56 1007.03 1006.63 1006.38 1006.34 1006.51 1006.92 1007.53 1008.31 1009.21 1010.16 1011.09 1011.95 1012.70 1013.33 1013.84 1014.25 1014.59 1014.90 1015.19 1015.47 1015.74 1015.99 1016.19 1016.32 1016.37 1016.34 1016.24 1016.10 1015.94 1015.79 1015.68 1015.62
1016.58 1015.67 1014.70 1013.70 1012.69 1011.71 1010.76 1009.85 1009.01 1008.23 1007.53 1006.93 1006.45 1006.12 1005.98 1006.05 1006.33 1006.83 1007.51 1008.34 1009.26 1010.20 1011.12 1011.96 1012.70 1013.32 1013.83 1014.25 1014.61 1014.93 1015.22 1015.49 1015.74 1015.95 1016.11 1016.20 1016.23 1016.18 1016.08 1015.94 1015.79 1015.66 1015.56 1015.49
1016.77 1015.77 1014.74 1013.68 1012.64 1011.61 1010.63 1009.69 1008.82 1008.02 1007.31 1006.72 1006.26 1005.97 1005.87 1005.99 1006.32 1006.84 1007.54 1008.37 1009.28 1010.21 1011.12 1011.95 1012.69 1013.32 1013.86 1014.30 1014.68 1015.00 1015.29 1015.54 1015.75 1015.92 1016.03 1016.08 1016.07 1016.00 1015.89 1015.75 1015.61 1015.49 1015.39 1015.32
1017.27 1016.18 1015.07 1013.96 1012.88 1011.83 1010.83 1009.88 1009.00 1008.19 1007.48 1006.88 1006.42 1006.12 1006.02 1006.12 1006.43 1006.93 1007.60 1008.40 1009.28 1010.19 1011.08 1011.91 1012.67 1013.33 1013.90 1014.37 1014.77 1015.11 1015.38 1015.61 1015.78 1015.91 1015.97 1015.97 1015.92 1015.82 1015.69 1015.55 1015.41 1015.29 1015.18 1015.10
1017.98 1016.80 1015.62 1014.47 1013.35 1012.28 1011.27 1010.32 1009.43 1008.62 1007.90 1007.28 1006.80 1006.47 1006.32 1006.38 1006.63 1007.07 1007.68 1008.42 1009.25 1010.13 1011.01 1011.85 1012.63 1013.33 1013.93 1014.45 1014.88 1015.22 1015.50 1015.70 1015.84 1015.92 1015.93 1015.89 1015.79 1015.67 1015.52 1015.36 1015.21 1015.07 1014.95 1014.84
1018.75 1017.50 1016.26 1015.06 1013.91 1012.82 1011.80 1010.84 1009.95 1009.13 1008.40 1007.76 1007.25 1006.88 1006.68 1006.67 1006.85 1007.21 1007.75 1008.43 1009.21 1010.06 1010.93 1011.78 1012.58 1013.31 1013.96 1014.51 1014.97 1015.33 1015.61 1015.80 1015.91 1015.95 1015.92 1015.84 1015.71 1015.55 1015.38 1015.20 1015.02 1014.86 1014.71 1014.57
1019.39 1018.09 1016.81 1015.57 1014.39 1013.28 1012.24 1011.27 1010.38 1009.56 1008.81 1008.16 1007.63 1007.23 1006.99 1006.92 1007.05 1007.36 1007.84 1008.46 1009.20 1010.02 1010.87 1011.72 1012.54 1013.29 1013.97 1014.55 1015.03 1015.41 1015.69 1015.87 1015.97 1015.99 1015.93 1015.82 1015.67 1015.48 1015.28 1015.07 1014.87 1014.67 1014.48 1014.30
1019.77 1018.45 1017.13 1015.86 1014.65 1013.52 1012.46 1011.48 1010.58 1009.76 1009.02 1008.37 1007.84 1007.44 1007.19 1007.11 1007.21 1007.49 1007.93 1008.52 1009.23 1010.02 1010.86 1011.70 1012.51 1013.27 1013.95 1014.55 1015.04 1015.43 1015.71 1015.90 1015.99 1016.00 1015.94 1015.82 1015.65 1015.45 1015.22 1014.99 1014.75 1014.52 1014.28 1014.05
1019.83 1018.50 1017.18 1015.88 1014.65 1013.48 1012.40 1011.41 1010.50 1009.68 1008.96 1008.34 1007.84 1007.48 1007.26 1007.21 1007.33 1007.62 1008.07 1008.65 1009.34 1010.10 1010.91 1011.72 1012.51 1013.24 1013.91 1014.49 1014.98 1015.37 1015.65 1015.85 1015.95 1015.97 1015.92 1015.80 1015.64 1015.43 1015.19 1014.94 1014.67 1014.39 1014.11 1013.82
1019.59 1018.28 1016.95 1015.65 1014.39 1013.19 1012.09 1011.07 1010.16 1009.36 1008.66 1008.10 1007.66 1007.37 1007.23 1007.25 1007.44 1007.77 1008.25 1008.84 1009.51 1010.25 1011.02 1011.78 1012.52 1013.21 1013.82 1014.37 1014.83 1015.20 1015.49 1015.69 1015.81 1015.85 1015.83 1015.74 1015.60 1015.40 1015.17 1014.89 1014.60 1014.28 1013.95 1013.61
Thickness
5732 5721 5713 5719 5722 5724 5721 5715 5711 5719 5732 5726 5723 5725 5732 5737 5736 5735 5735 5735 5736 5737 5738 5737 5735 5733 5729 5725 5721 5718 5714 5712 5708 5703 5699 5694 5691 5689 5687 5685 5682 5680 5676 5673
5719 5715 5726 5730 5728 5723 5718 5712 5711 5718 5727 5724 5717 5720 5728 5732 5732 5733 5732 5732 5733 5732 5731 5730 5729 5727 5724 5721 5718 5715 5712 5708 5704 5701 5697 5693 5689 5685 5682 5679 5676 5674 5672 5669
5718 5724 5734 5730 5725 5720 5717 5713 5713 5713 5717 5718 5713 5710 5720 5727 5730 5731 5731 5732 5732 5730 5727 5726 5724 5722 5720 5717 5715 5712 5708 5704 5700 5696 5691 5687 5683 5679 5675 5673 5670 5668 5666 5663
5719 5728 5730 5726 5722 5721 5711 5725 5721 5715 5703 5694 5701 5686 5709 5717 5720 5724 5725 5727 5727 5727 5725 5723 5721 5718 5716 5714 5712 5708 5705 5700 5696 5692 5687 5682 5677 5673 5671 5668 5665 5663 5660 5657
5718 5727 5725 5721 5725 5725 5721 5726 5719 5711 5700 5689 5691 5683 5695 5709 5711 5718 5722 5724 5725 5724 5723 5720 5719 5716 5713 5710 5706 5703 5700 5695 5691 5687 5684 5679 5674 5670 5666 5663 5660 5657 5654 5651
5720 5730 5729 5727 5732 5730 5725 5714 5705 5693 5685 5676 5686 5679 5685 5699 5710 5717 5721 5722 5722 5721 5720 5717 5715 5712 5708 5705 5701 5698 5694 5689 5685 5681 5678 5673 5669 5665 5661 5657 5653 5650 5648 5645
5709 5720 5729 5731 5722 5721 5713 5693 5673 5670 5661 5668 5684 5679 5686 5709 5716 5717 5718 5718 5719 5718 5715 5713 5710 5707 5703 5699 5696 5692 5688 5683 5680 5676 5672 5669 5664 5660 5656 5652 5648 5645 5641 5639
5689 5696 5719 5724 5719 5710 5704 5693 5669 5659 5656 5664 5676 5674 5695 5714 5716 5717 5716 5715 5714 5713 5711 5709 5706 5702 5698 5694 5691 5687 5682 5678 5674 5670 5667 5663 5659 5655 5652 5648 5644 5641 5638 5635
5683 5690 5718 5723 5723 5715 5699 5688 5688 5668 5663 5656 5665 5680 5698 5710 5709 5708 5708 5708 5707 5706 5705 5703 5700 5697 5693 5689 5686 5682 5678 5673 5670 5665 5661 5658 5653 5650 5646 5643 5640 5637 5634 5632
5689 5682 5703 5713 5716 5710 5703 5689 5671 5661 5652 5648 5661 5670 5679 5696 5699 5700 5700 5700 5701 5701 5699 5697 5695 5691 5688 5684 5680 5675 5673 5669 5665 5661 5657 5654 5649 5646 5642 5640 5636 5633 5630 5628
5686 5675 5685 5695 5695 5692 5688 5681 5670 5657 5654 5647 5647 5664 5695 5696 5698 5696 5697 5697 5696 5695 5694 5692 5689 5687 5683 5678 5674 5670 5666 5663 5659 5655 5652 5649 5645 5641 5638 5635 5632 5629 5626 5623
5677 5665 5662 5678 5694 5697 5689 5680 5667 5657 5653 5648 5645 5662 5701 5698 5696 5695 5694 5694 5692 5690 5689 5686 5684 5681 5677 5673 5669 5666 5662 5658 5654 5651 5647 5643 5640 5636 5633 5630 5628 5625 5622 5620
5671 5657 5649 5659 5671 5681 5679 5677 5670 5660 5650 5643 5643 5664 5695 5693 5692 5692 5691 5690 5687 5685 5682 5680 5678 5675 5672 5669 5665 5661 5658 5654 5650 5646 5642 5638 5635 5632 5629 5627 5625 5622 5619 5617
5667 5650 5645 5644 5653 5663 5667 5671 5668 5659 5647 5646 5653 5668 5684 5686 5686 5686 5686 5685 5683 5680 5678 5675 5672 5669 5667 5664 5660 5657 5653 5649 5646 5642 5638 5634 5632 5629 5627 5624 5622 5619 5616 5613
5654 5644 5648 5652 5661 5663 5665 5669 5668 5662 5660 5655 5664 5669 5681 5685 5685 5685 5683 5681 5679 5677 5674 5671 5667 5665 5662 5658 5655 5653 5649 5646 5643 5638 5635 5632 5630 5627 5624 5622 5619 5617 5614 5612
5640 5637 5642 5646 5658 5658 5660 5666 5668 5667 5667 5665 5667 5670 5685 5686 5686 5683 5681 5679 5676 5673 5671 5668 5665 5662 5659 5656 5653 5649 5646 5643 5639 5636 5632 5630 5627 5625 5622 5619 5617 5614 5612 5609
5628 5628 5628 5630 5645 5650 5647 5663 5667 5669 5672 5669 5664 5673 5680 5680 5681 5680 5679 5676 5673 5671 5669 5666 5663 5660 5656 5654 5651 5647 5644 5641 5637 5633 5631 5628 5625 5623 5620 5618 5615 5612 5609 5606
5622 5619 5615 5619 5630 5628 5653 5674 5674 5671 5672 5673 5673 5676 5677 5678 5678 5678 5676 5673 5670 5669 5667 5664 5661 5657 5654 5651 5648 5645 5641 5637 5634 5631 5628 5626 5624 5621 5619 5616 5613 5610 5607 5604
5626 5619 5613 5612 5618 5631 5655 5669 5669 5664 5666 5674 5672 5673 5673 5673 5674 5673 5675 5673 5670 5669 5666 5662 5659 5656 5652 5649 5646 5642 5639 5635 5632 5629 5627 5625 5623 5620 5617 5615 5612 5608 5605 5602
5623 5619 5612 5611 5616 5623 5647 5667 5673 5666 5657 5670 5668 5667 5666 5667 5661 5666 5672 5670 5668 5666 5663 5660 5656 5653 5650 5647 5644 5640 5637 5634 5631 5629 5626 5624 5622 5619 5616 5614 5611 5607 5604 5601
5613 5611 5608 5608 5612 5628 5650 5662 5666 5646 5649 5665 5665 5664 5663 5663 5664 5668 5670 5667 5665 5663 5660 5658 5654 5650 5648 5645 5641 5638 5635 5632 5631 5629 5626 5623 5621 5619 5616 5613 5609 5606 5602 5599
5605 5604 5606 5604 5608 5623 5649 5652 5647 5647 5656 5660 5662 5662 5662 5662 5664 5665 5665 5664 5661 5659 5656 5654 5650 5647 5645 5642 5639 5636 5633 5632 5630 5627 5624 5622 5620 5618 5616 5611 5608 5605 5601 5598
5602 5603 5601 5606 5617 5633 5640 5643 5647 5649 5652 5657 5658 5660 5661 5659 5660 5661 5660 5659 5657 5655 5653 5650 5647 5644 5642 5640 5638 5635 5633 5631 5628 5625 5622 5620 5618 5615 5613 5609 5606 5602 5599 5596
5599 5603 5602 5608 5623 5631 5637 5643 5647 5650 5652 5655 5658 5659 5660 5658 5658 5658 5656 5654 5652 5651 5649 5647 5644 5642 5640 5638 5637 5635 5632 5629 5626 5623 5620 5618 5615 5613 5611 5607 5604 5601 5598 5595
5593 5597 5596 5603 5617 5627 5638 5640 5644 5647 5650 5653 5656 5658 5658 5657 5655 5655 5653 5651 5650 5648 5646 5645 5643 5640 5639 5637 5635 5633 5631 5628 5624 5621 5619 5616 5613 5611 5608 5606 5603 5600 5598 5595
5595 5594 5594 5604 5616 5617 5628 5637 5641 5644 5647 5650 5652 5654 5656 5656 5654 5653 5650 5649 5648 5646 5645 5643 5641 5639 5637 5635 5634 5632 5630 5627 5623 5620 5617 5614 5611 5609 5606 5604 5602 5601 5598 5596